This is the latest recevied weather packets stored in our database for station/object KF5WCW-1. If no packets are shown the sender has not sent any weather packets the latest 10 day(s).
| Time | Temp. | Humidity | Pressure | Rain* | Wind** | Luminosity | Snow |
|---|---|---|---|---|---|---|---|
| 1777675278 | 11.67° C | 36% | 0 hPa | 0 mm | - | - | - |
| 1777674978 | 11.67° C | 34% | 0 hPa | 0 mm | - | - | - |
| 1777674678 | 12.22° C | 36% | 0 hPa | 0 mm | - | - | - |
| 1777674386 | 11.67° C | 37% | 0 hPa | 0 mm | - | - | - |
| 1777674078 | 11.67° C | 35% | 0 hPa | 0 mm | - | - | - |
| 1777673778 | 11.67° C | 36% | 0 hPa | 0 mm | - | - | - |
| 1777673478 | 11.11° C | 36% | 0 hPa | 0 mm | - | - | - |
| 1777673178 | 10.56° C | 36% | 0 hPa | 0 mm | - | - | - |
| 1777672878 | 10.56° C | 34% | 0 hPa | 0 mm | - | - | - |
| 1777672578 | 10.56° C | 34% | 0 hPa | 0 mm | - | - | - |
| 1777672278 | 10.56° C | 36% | 0 hPa | 0 mm | - | - | - |
| 1777671978 | 11.11° C | 36% | 0 hPa | 0 mm | - | - | - |
| 1777671678 | 11.67° C | 34% | 0 hPa | 0 mm | - | - | - |
| 1777671378 | 11.11° C | 37% | 0 hPa | 0 mm | - | - | - |
| 1777671078 | 11.11° C | 40% | 0 hPa | 0 mm | - | - | - |
| 1777670778 | 10.56° C | 38% | 0 hPa | 0 mm | - | - | - |
| 1777670478 | 10.56° C | 38% | 0 hPa | 0 mm | - | - | - |
| 1777670178 | 10° C | 40% | 0 hPa | 0 mm | - | - | - |
| 1777669878 | 10° C | 46% | 0 hPa | 0 mm | - | - | - |
| 1777669578 | 10° C | 44% | 0 hPa | 0 mm | - | - | - |
| 1777669278 | 10.56° C | 45% | 0 hPa | 0 mm | - | - | - |
| 1777668978 | 10° C | 45% | 0 hPa | 0 mm | - | - | - |
| 1777668678 | 10° C | 43% | 0 hPa | 0 mm | - | - | - |
| 1777668378 | 10° C | 44% | 0 hPa | 0 mm | - | - | - |
| 1777668078 | 10° C | 42% | 0 hPa | 0 mm | - | - | - |
* Rain latest hour (hover to see other rain measurements)
** Current wind speed in m/s (hover to see current wind gust speed)